Погода в Урхучимахах

Россия / Республика Дагестан     42°18′36″N   47°15′36″E
темп.,
°C
ветер,
м/с
пор.,
м/с
влажн.,
%
обл.,
%
осадки,
мм/ч
давл.,
гПа
погр.,
м
25 июня, сб
сб2500:00+11ююз227932 0.1 101014
03:00+10ююз227912 0.1 101116
06:00+14ююз12754 0.0 101050
09:00+18св226853 0.0 1009543
12:00+20св326721 1.1 1008885
15:00+20всв337295 3.3 1007645
18:00+16св229186 1.8 1009270
21:00+13зсз1297100 2.9 101286
26 июня, вс
вс2600:00+12ююз3389100 0.4 101244
03:00+12ю2282100 1.6 101111
06:00+14юв228028 0.0 101065
09:00+17всв1174100 0.1 1009280
12:00+17всв3379100 1.3 1008464
15:00+18св3279100 3.1 1007610
18:00+15с2292100 1.7 1009203
21:00+13з1297100 4.9 101268
27 июня, пн
пн2700:00+12зсз1194100 0.3 101215
03:00+11юз21880 0.3 101212
06:00+14юз11770 0.0 101254
09:00+18ссз22710 0.0 1011486
12:00+21ссв326520 0.0 10101180
15:00+17ссв338697 1.8 1012621
18:00+16с128944 1.5 1013355
21:00+13зюз1194100 1.9 101413
28 июня, вт
вт2800:00+13з1192100 0.0 101314
03:00+12зюз1191100 0.0 101211
06:00+14з12860 0.0 101290
09:00+18ссз33730 0.0 1010524
12:00+20с32652 0.1 1010935
15:00+18ссв336752 0.5 1011950
18:00+17ссв127436 0.1 1012359
21:00+11зсз11949 1.2 101511
29 июня, ср
ср2900:00+12з1194100 0.5 101526
03:00+11св019292 0.6 101410
06:00+13юз118761 0.0 101597
09:00+16св216827 0.0 1014834
12:00+17всв2266100 0.3 10141120
15:00+16св126798 0.4 1014893
18:00+15всв127893 0.0 1014105
21:00+13юв228590 0.0 101645